Waarnemingen

Advertentie
Mijn weer
Holmon, Zweden (2287): temperatuur & dauwpunt: 15.05.2019 01:00:00 - 21.05.2019 01:00:00 (CEST)Holmon, Zweden (2287): windsnelheid & windstoten: 15.05.2019 01:00:00 - 21.05.2019 01:00:00 (CEST)Holmon, Zweden (2287): windrichting: 15.05.2019 01:00:00 - 21.05.2019 01:00:00 (CEST)Holmon, Zweden (2287): luchtdruk: 15.05.2019 01:00:00 - 21.05.2019 01:00:00 (CEST)Holmon, Zweden (2287): zicht: 15.05.2019 01:00:00 - 21.05.2019 01:00:00 (CEST)Holmon, Zweden (2287): neerslag: 15.05.2019 01:00:00 - 21.05.2019 01:00:00 (CEST)
Datum & Tijd tt [°C] td [°C] ff [km/u] ff [kn] fx [km/u] fx [kn] dd ppp [hPa] vv [km] rr [mm]
21.05.2019 01:00:00 7,9 7,3 8 4 10 6 NO 1014,4 11 -
21.05.2019 00:00:00 9,2 8,4 8 4 - - ONO 1014,2 17 -
20.05.2019 23:00:00 8,8 8,2 8 4 13 7 ONO 1014,2 13 -
20.05.2019 22:00:00 9,6 8,5 11 6 - - N 1014,0 19 -
20.05.2019 21:00:00 11,3 7,8 7 4 14 8 NNO 1013,6 20 -
20.05.2019 20:00:00 15,1 10,5 2 1 13 7 ZO 1013,4 22 -
20.05.2019 19:00:00 17,0 10,8 10 5 17 9 ZO 1013,5 27 -
20.05.2019 18:00:00 17,4 11,2 8 5 12 7 OZO 1013,6 22 -
20.05.2019 17:00:00 18,3 11,6 5 3 7 4 W 1013,8 26 -
20.05.2019 16:00:00 18,8 11,4 4 2 - - WNW 1014,0 29 -
20.05.2019 15:00:00 18,7 11,0 0 0 9 5 N 1014,4 25 -
20.05.2019 14:00:00 - 11,0 3 2 11 6 NO 1014,6 26 -
20.05.2019 13:00:00 18,6 9,9 8 4 11 6 ONO 1014,6 26 -
20.05.2019 12:00:00 18,1 9,4 3 2 13 7 NNW 1014,8 22 -
20.05.2019 11:00:00 16,7 8,6 9 5 18 10 WZW 1014,9 23 -
20.05.2019 10:00:00 15,9 9,1 10 5 17 9 WZW 1015,0 30 -
20.05.2019 09:00:00 14,5 8,7 12 7 18 10 ZW 1015,2 26 -
20.05.2019 08:00:00 13,0 8,5 10 5 15 8 WZW 1015,2 25 -
20.05.2019 07:00:00 14,2 9,4 7 4 13 7 ZZW 1015,1 26 -
20.05.2019 06:00:00 12,6 10,3 5 3 11 6 Z 1015,2 27 -
20.05.2019 05:00:00 12,0 8,3 6 4 14 7 ZO 1015,2 30 -
20.05.2019 04:00:00 11,4 7,3 12 7 27 15 OZO 1015,2 31 -
20.05.2019 03:00:00 11,8 7,1 0 0 9 5 N 1015,4 31 -
20.05.2019 02:00:00 11,9 6,4 5 3 9 5 ZZW 1015,8 30 -
20.05.2019 01:00:00 11,3 5,6 2 1 - - WZW 1016,0 32 -
20.05.2019 00:00:00 9,8 6,7 4 2 21 12 O 1016,0 36 -
19.05.2019 23:00:00 9,7 6,4 10 5 20 11 ONO 1015,3 34 -
19.05.2019 22:00:00 9,3 7,1 10 5 14 8 NNO 1015,2 29 -
19.05.2019 21:00:00 10,1 6,4 5 3 11 6 NNO 1015,5 28 -
19.05.2019 20:00:00 10,5 6,3 5 3 12 7 NNO 1015,6 26 -
19.05.2019 19:00:00 12,3 5,0 10 5 13 7 O 1015,4 27 -
19.05.2019 18:00:00 13,2 5,4 9 5 11 6 ONO 1016,0 34 -
19.05.2019 17:00:00 15,8 5,1 9 5 12 6 O 1016,1 29 -
19.05.2019 16:00:00 19,4 5,1 11 6 15 8 O 1016,4 32 -
19.05.2019 15:00:00 16,5 5,7 6 4 16 9 NO 1016,6 30 -
19.05.2019 14:00:00 19,7 3,8 9 5 18 10 OZO 1016,9 28 -
19.05.2019 13:00:00 20,1 4,2 2 1 8 4 NW 1017,0 23 -
19.05.2019 12:00:00 17,4 3,3 3 2 13 7 WZW 1017,3 30 -
19.05.2019 11:00:00 17,2 2,4 3 2 6 3 WZW 1017,3 27 -
19.05.2019 10:00:00 17,3 5,9 3 1 11 6 N 1017,4 34 -
19.05.2019 09:00:00 14,2 6,8 8 4 11 6 WZW 1017,5 28 -
19.05.2019 08:00:00 14,3 6,1 4 2 10 5 WZW 1017,7 32 -
19.05.2019 07:00:00 13,0 7,7 0 0 5 3 N 1017,8 32 -
19.05.2019 06:00:00 12,9 5,8 0 0 7 4 N 1017,7 32 -
19.05.2019 05:00:00 10,0 5,0 5 3 10 5 WZW 1017,8 31 -
19.05.2019 04:00:00 9,7 3,9 7 4 12 7 ZW 1018,3 32 -
19.05.2019 03:00:00 10,3 4,4 8 5 - - ZW 1018,4 32 -
19.05.2019 02:00:00 10,4 4,1 8 4 10 6 ZW 1018,6 33 -
19.05.2019 01:00:00 10,2 4,3 8 5 13 7 ZW 1018,8 34 -
19.05.2019 00:00:00 10,3 4,4 11 6 15 8 ZW 1018,9 36 -
18.05.2019 23:00:00 10,5 4,4 10 5 14 8 ZZW 1018,7 29 -
18.05.2019 22:00:00 11,0 4,7 10 5 14 8 ZZW 1018,7 33 -
18.05.2019 21:00:00 12,5 4,2 11 6 16 9 ZZW 1019,0 34 -
18.05.2019 20:00:00 15,6 3,7 12 7 18 10 ZW 1019,1 33 -
18.05.2019 19:00:00 16,5 3,9 13 7 17 9 ZW 1019,5 31 -
18.05.2019 18:00:00 15,8 4,5 11 6 18 10 ZW 1020,0 31 -
18.05.2019 17:00:00 16,1 6,2 4 2 15 8 W 1020,5 36 -
18.05.2019 16:00:00 16,7 3,7 3 2 8 4 NW 1021,0 32 -
18.05.2019 15:00:00 16,4 4,7 5 3 10 5 N 1021,5 28 -
18.05.2019 14:00:00 15,2 4,6 3 2 10 5 N 1022,0 33 -
18.05.2019 13:00:00 16,1 5,4 5 3 19 10 WZW 1022,6 30 -
18.05.2019 12:00:00 15,6 4,6 14 8 16 9 ONO 1022,9 25 -
18.05.2019 11:00:00 14,8 4,5 8 4 12 6 NO 1023,4 28 -
18.05.2019 10:00:00 12,4 5,1 6 4 10 6 ONO 1023,6 32 -
18.05.2019 09:00:00 11,1 5,8 6 3 13 7 NO 1024,0 33 -
18.05.2019 08:00:00 10,2 6,0 9 5 12 6 NO 1024,2 33 -
18.05.2019 07:00:00 8,9 5,6 8 4 10 5 NNO 1024,4 35 -
18.05.2019 06:00:00 7,7 5,2 2 1 8 5 NNO 1024,8 36 -
18.05.2019 05:00:00 5,8 4,6 6 3 8 4 ONO 1025,1 35 -
18.05.2019 04:00:00 3,5 2,6 5 3 6 3 ONO 1025,2 29 -
18.05.2019 03:00:00 4,9 4,5 0 0 4 2 N 1025,3 33 -
18.05.2019 02:00:00 4,6 4,0 3 2 5 3 ONO 1025,2 29 -
18.05.2019 01:00:00 4,9 4,2 3 2 5 3 NW 1025,5 30 -
18.05.2019 00:00:00 6,3 3,1 3 2 10 5 OZO 1025,5 37 -
17.05.2019 23:00:00 6,6 3,7 7 4 10 6 OZO 1025,7 37 -
17.05.2019 22:00:00 5,9 4,5 3 1 6 3 O 1025,8 33 -
17.05.2019 21:00:00 9,1 4,7 5 3 9 5 OZO 1025,7 37 -
17.05.2019 20:00:00 8,7 4,7 7 4 10 6 ONO 1025,7 33 -
17.05.2019 19:00:00 10,6 4,9 5 3 11 6 NO 1026,0 36 -
17.05.2019 18:00:00 12,6 5,3 6 3 - - NNO 1026,4 37 -
17.05.2019 17:00:00 11,8 5,4 4 2 9 5 NNO 1026,7 30 -
17.05.2019 16:00:00 12,9 5,3 5 3 22 12 NNO 1027,2 31 -
17.05.2019 15:00:00 12,9 4,8 22 12 26 14 ZW 1027,5 32 -
17.05.2019 14:00:00 14,6 5,7 19 10 23 12 ZW 1027,7 30 -
17.05.2019 13:00:00 13,9 6,5 16 8 24 13 WZW 1028,2 28 -
17.05.2019 12:00:00 11,6 6,1 4 2 12 6 WNW 1028,6 29 -
17.05.2019 11:00:00 11,7 6,2 10 6 18 10 W 1028,8 23 -
17.05.2019 10:00:00 13,4 4,8 8 4 13 7 NO 1028,8 31 -
17.05.2019 09:00:00 10,6 5,6 4 2 8 5 W 1028,7 31 -
17.05.2019 08:00:00 9,0 5,2 6 3 9 5 ZW 1028,6 35 -
17.05.2019 07:00:00 8,9 4,5 4 2 8 4 WZW 1028,6 35 -
17.05.2019 06:00:00 6,7 4,4 4 2 7 4 WZW 1028,6 38 -
17.05.2019 05:00:00 6,1 4,6 5 3 7 4 W 1028,6 31 -
17.05.2019 04:00:00 6,0 4,8 7 4 10 6 WZW 1028,6 32 -
17.05.2019 03:00:00 6,4 5,2 8 4 9 5 ZW 1028,6 34 -
17.05.2019 02:00:00 6,5 4,8 9 5 14 8 ZW 1028,5 30 -
17.05.2019 01:00:00 7,1 5,1 10 6 14 7 ZW 1028,6 36 -
17.05.2019 00:00:00 7,0 4,8 9 5 15 8 ZW 1028,6 35 -
16.05.2019 23:00:00 7,5 4,6 11 6 14 8 ZW 1028,5 34 -
16.05.2019 22:00:00 7,8 4,2 8 4 13 7 ZZW 1028,6 31 -
16.05.2019 21:00:00 9,6 3,6 6 4 15 8 ZZW 1028,4 34 -
16.05.2019 20:00:00 10,8 3,1 12 6 18 10 ZW 1028,3 38 -
16.05.2019 19:00:00 11,9 2,6 12 6 18 10 ZW 1028,4 31 -
16.05.2019 18:00:00 12,3 3,3 12 7 19 10 ZW 1028,5 32 -
16.05.2019 17:00:00 13,1 2,9 14 7 22 12 WZW 1028,7 35 -
16.05.2019 16:00:00 13,9 1,5 15 8 23 13 WZW 1029,0 30 -
16.05.2019 15:00:00 12,5 1,5 20 11 26 14 ZW 1029,2 31 -
16.05.2019 14:00:00 14,8 2,3 5 3 16 9 NW 1029,3 29 -
16.05.2019 13:00:00 13,6 0,9 11 6 24 13 ZO 1029,4 31 -
16.05.2019 12:00:00 14,4 1,3 14 7 19 11 ZO 1029,3 25 -
16.05.2019 11:00:00 10,7 4,2 9 5 21 11 WZW 1029,4 29 -
16.05.2019 10:00:00 14,0 2,6 10 5 15 8 ONO 1029,4 35 -
16.05.2019 09:00:00 13,3 2,8 3 2 5 3 NNO 1029,5 28 -
16.05.2019 08:00:00 9,7 3,4 2 1 9 5 NNW 1029,5 33 -
16.05.2019 07:00:00 8,0 3,3 5 3 9 5 WNW 1029,3 32 -
16.05.2019 06:00:00 6,6 3,2 5 3 10 5 W 1029,3 35 -
16.05.2019 05:00:00 6,3 2,6 5 3 10 5 W 1029,0 34 -
16.05.2019 04:00:00 6,4 2,7 7 4 12 7 W 1028,8 32 -
16.05.2019 03:00:00 6,4 2,7 6 3 11 6 W 1028,7 30 -
16.05.2019 02:00:00 6,8 3,4 6 3 14 8 WZW 1028,8 32 -
16.05.2019 01:00:00 6,4 4,2 11 6 21 11 ZW 1028,6 27 -
16.05.2019 00:00:00 6,3 4,6 18 10 29 15 ZW 1028,7 28 -
15.05.2019 23:00:00 6,4 4,4 20 11 28 15 ZW 1028,8 27 -
15.05.2019 22:00:00 6,2 4,5 21 11 30 16 ZW 1028,9 26 -
15.05.2019 21:00:00 6,7 4,5 20 11 33 18 ZZW 1029,0 29 -
15.05.2019 20:00:00 8,0 4,4 25 13 40 21 ZW 1028,9 32 -
15.05.2019 19:00:00 9,1 4,1 27 14 40 22 ZW 1029,0 32 -
15.05.2019 18:00:00 10,2 3,9 26 14 37 20 ZW 1029,1 28 -
15.05.2019 17:00:00 10,3 3,6 26 14 37 20 ZW 1029,3 27 0,0
15.05.2019 16:00:00 12,6 3,0 20 11 35 19 ZZW 1029,6 34 -
15.05.2019 15:00:00 11,6 2,9 23 12 30 16 ZW 1029,8 28 -
15.05.2019 14:00:00 12,3 3,3 21 11 30 16 ZZW 1030,1 27 -
15.05.2019 13:00:00 12,1 3,3 22 12 31 17 ZW 1030,1 31 -
15.05.2019 12:00:00 12,4 4,9 15 8 22 12 ZW 1030,3 26 -
15.05.2019 11:00:00 12,5 4,5 8 5 18 10 W 1030,1 30 -
15.05.2019 10:00:00 11,9 3,9 10 5 16 9 ONO 1030,1 29 -
15.05.2019 09:00:00 11,9 3,9 3 2 6 3 NO 1030,0 27 -
15.05.2019 08:00:00 9,9 3,8 3 2 8 5 NW 1029,7 32 -
15.05.2019 07:00:00 7,1 3,3 3 2 10 5 WZW 1029,5 26 -
15.05.2019 06:00:00 5,2 3,1 7 4 14 8 WZW 1029,3 29 -
15.05.2019 05:00:00 - - - - 10 6 - - - -
15.05.2019 04:00:00 4,8 3,0 7 4 10 5 WZW 1028,9 34 -
15.05.2019 03:00:00 4,6 3,1 10 5 15 8 WZW 1028,8 35 -
15.05.2019 02:00:00 4,6 2,8 8 4 14 7 WZW 1028,7 41 -
15.05.2019 01:00:00 4,8 3,0 10 6 14 8 WZW 1028,6 36 -

tt = temperatuur
td = dauwpunt
ff = windsnelheid
fx = windstoten
dd = windrichting
ppp = luchtdruk
vv = zicht
rr = neerslag

Weerstations in de omgeving